HINODE (SOLAR-B) (29479 NORAD) Tracking and Keplerian Element Data

This shows tracking and keplerian element data for the satellite.

Feedback or suggestion? Click here.




ElementValue
Catalog29479
NameHINODE (SOLAR-B)
Epoch Orbit65369
Epoch Day351.66185307
Epoch Year2018
RAAN357.3335
Inclination98.1691
Eccentricity0.001591
Argument of Perigee294.3918
Mean Anonmoly65.5624
Mean Motion14.64961934
Decay Rate6.5E-07
L11 29479U 06041A 18351.66185307 .00000065 00000-0 21322-4 0 9991
L22 29479 98.1691 357.3335 0015910 294.3918 65.5624 14.64961934653692

Live tracking and technical data element details for HINODE (SOLAR-B) (NORAD 29479). HINODE (SOLAR-B) can be tracked NOW for your location showing map with azimuth and elevation plus other details from your city location.

Track the satellite on the map from your city or location and see movement details for azimuth, elevation, latitude, longitude, range, height, and movement on the map or in text.







IsCatalogInMostPopularTable: catalog: 29479, numindb: 54
Update: records affected: 1



GetName: 29479 HINODE (SOLAR-B)

Hit Count: updated at: Tue, 18 Dec 2018 21:19:40 GMT